FW3613 Weather Reports


Display with metric or nautical units.
time (UTC)temp
F
wind
direction
speed
MPH
gust
MPH
rain 1hr
in
rain 24hr
in
rain mn
in
humidity
%
barometer
mb
20260510091024 52 117 0.0 0.0 0.00 0.00 0.00 64 1017.5
20260510090523 52 117 0.0 0.0 0.00 0.00 0.00 65 1017.5
20260510090027 53 117 0.0 0.0 0.00 0.00 0.00 64 1017.5
20260510085523 53 80 0.0 0.0 0.00 0.00 0.00 63 1017.5
20260510085020 53 79 0.0 0.0 0.00 0.00 0.00 62 1017.5
20260510084526 53 79 0.0 0.0 0.00 0.00 0.00 62 1017.5
20260510084020 53 76 0.0 0.0 0.00 0.00 0.00 61 1017.5
20260510083519 53 77 0.0 0.0 0.00 0.00 0.00 58 1017.5
20260510083020 54 76 0.0 0.0 0.00 0.00 0.00 59 1017.5
20260510082522 54 77 0.0 0.0 0.00 0.00 0.00 57 1017.5
20260510082019 54 76 0.0 0.0 0.00 0.00 0.00 55 1017.5
20260510081519 54 76 0.0 0.0 0.00 0.00 0.00 56 1017.5
20260510081019 53 77 0.0 0.0 0.00 0.00 0.00 58 1017.5
20260510080517 53 76 0.0 0.0 0.00 0.00 0.00 59 1017.6
20260510080016 53 76 0.0 0.0 0.00 0.00 0.00 60 1017.5
20260510075514 53 77 0.0 1.0 0.00 0.00 0.00 58 1017.4
20260510075014 53 77 0.0 1.0 0.00 0.00 0.00 59 1017.4
20260510074514 53 105 0.0 1.0 0.00 0.00 0.00 59 1017.4
20260510074012 54 105 0.0 2.0 0.00 0.00 0.00 59 1017.3
20260510073512 54 86 1.0 2.0 0.00 0.00 0.00 57 1017.3
20260510073012 54 45 0.0 2.0 0.00 0.00 0.00 60 1017.5
20260510072514 53 89 0.0 2.0 0.00 0.00 0.00 59 1017.5
20260510072012 53 108 0.0 1.0 0.00 0.00 0.00 60 1017.5
20260510071512 53 109 0.0 2.0 0.00 0.00 0.00 61 1017.5
20260510071012 53 109 0.0 2.0 0.00 0.00 0.00 62 1017.5
20260510070510 53 54 0.0 0.0 0.00 0.00 0.00 63 1017.5
20260510070013 52 54 0.0 0.0 0.00 0.00 0.00 63 1017.5
20260510065509 52 54 0.0 0.0 0.00 0.00 0.00 65 1017.5
20260510065011 52 53 0.0 0.0 0.00 0.00 0.00 66 1017.5
20260510064508 52 123 0.0 0.0 0.00 0.00 0.00 67 1017.4
20260510064006 52 123 0.0 0.0 0.00 0.00 0.00 68 1017.4
20260510063505 53 123 0.0 0.0 0.00 0.00 0.00 65 1017.4
20260510063004 53 123 0.0 0.0 0.00 0.00 0.00 63 1017.4
20260510062502 53 122 0.0 0.0 0.00 0.00 0.00 62 1017.4
20260510062001 53 123 0.0 0.0 0.00 0.00 0.00 61 1017.4
20260510061600 54 122 0.0 0.0 0.00 0.00 0.00 61 1017.4
20260510061059 54 123 0.0 0.0 0.00 0.00 0.00 60 1017.4
20260510060558 54 123 0.0 0.0 0.00 0.00 0.00 59 1017.4
20260510055556 55 122 0.0 0.0 0.00 0.00 0.00 58 1017.4
20260510055056 55 122 0.0 0.0 0.00 0.00 0.00 58 1017.4
20260510054601 55 122 0.0 2.0 0.00 0.00 0.00 59 1017.4
20260510054056 55 123 0.0 2.0 0.00 0.00 0.00 57 1017.4
20260510053557 56 86 1.0 2.0 0.00 0.00 0.00 54 1017.4
20260510053055 56 44 0.0 1.0 0.00 0.00 0.00 56 1017.4
20260510052555 56 44 0.0 1.0 0.00 0.00 0.00 56 1017.4
20260510052055 56 44 0.0 1.0 0.00 0.00 0.00 55 1017.4
20260510051555 57 105 0.0 1.0 0.00 0.00 0.00 53 1017.2
20260510051057 57 106 0.0 1.0 0.00 0.00 0.00 51 1017.3
20260510050554 57 109 0.0 1.0 0.00 0.00 0.00 53 1017.3
20260510050054 58 108 0.0 1.0 0.00 0.00 0.00 52 1017.3
20260510045556 58 89 0.0 1.0 0.00 0.00 0.00 51 1017.3
20260510045055 58 86 0.0 1.0 0.00 0.00 0.00 51 1017.2
20260510044603 58 79 0.0 0.0 0.00 0.00 0.00 51 1017.2
20260510044053 58 79 0.0 1.0 0.00 0.00 0.00 51 1017.1
20260510043554 58 79 0.0 2.0 0.00 0.00 0.00 51 1017.2
20260510043054 59 131 0.0 2.0 0.00 0.00 0.00 50 1017.1
20260510042554 59 131 0.0 1.0 0.00 0.00 0.00 49 1017.1
20260510042053 59 94 0.0 1.0 0.00 0.00 0.00 50 1017.0
20260510041558 60 95 0.0 1.0 0.00 0.00 0.00 47 1017.0
20260510041053 61 86 0.0 1.0 0.00 0.00 0.00 46 1017.0
20260510040554 61 80 0.0 1.0 0.00 0.00 0.00 44 1017.0
20260510040053 61 84 0.0 2.0 0.00 0.00 0.00 44 1017.0
20260510035552 60 85 1.0 2.0 0.00 0.00 0.00 44 1016.8
20260510035056 60 120 0.0 2.0 0.00 0.00 0.00 46 1016.8
20260510034552 61 120 0.0 2.0 0.00 0.00 0.00 47 1016.9
20260510034052 61 122 0.0 1.0 0.00 0.00 0.00 45 1016.7
20260510033551 62 124 0.0 1.0 0.00 0.00 0.00 44 1016.7
20260510033115 63 128 0.0 2.0 0.00 0.00 0.00 42 1016.7
20260510032555 64 129 0.0 2.0 0.00 0.00 0.00 40 1016.7
20260510032051 64 219 0.0 0.0 0.00 0.00 0.00 40 1016.6
20260510031605 65 219 0.0 1.0 0.00 0.00 0.00 39 1016.6
20260510031055 66 219 0.0 1.0 0.00 0.00 0.00 37 1016.5
20260510030550 67 283 0.0 1.0 0.00 0.00 0.00 35 1016.5
20260510030051 69 283 0.0 1.0 0.00 0.00 0.00 34 1016.5
20260510025550 70 283 0.0 0.0 0.00 0.00 0.00 30 1016.4
20260510025050 70 283 0.0 1.0 0.00 0.00 0.00 30 1016.3
20260510024550 71 283 0.0 3.0 0.00 0.00 0.00 27 1016.3
20260510024051 71 283 0.0 3.0 0.00 0.00 0.00 27 1016.3
20260510023550 72 291 0.0 4.0 0.00 0.00 0.00 26 1016.3
20260510023051 72 297 0.0 6.0 0.00 0.00 0.00 26 1016.3
20260510022550 72 292 2.0 4.0 0.00 0.00 0.00 26 1016.2
20260510022050 72 308 2.0 7.0 0.00 0.00 0.00 26 1016.2
20260510021550 72 304 1.0 7.0 0.00 0.00 0.00 25 1016.2
20260510021049 72 291 1.0 7.0 0.00 0.00 0.00 25 1016.2
20260510020550 73 305 2.0 7.0 0.00 0.00 0.00 25 1016.2
20260510020049 73 298 2.0 8.0 0.00 0.00 0.00 25 1016.2
20260510015554 73 284 3.0 8.0 0.00 0.00 0.00 25 1016.2
20260510015051 73 300 2.0 9.0 0.00 0.00 0.00 25 1016.2
20260510014551 73 297 3.0 9.0 0.00 0.00 0.00 24 1016.2
20260510014047 73 304 4.0 11.0 0.00 0.00 0.00 24 1016.2
20260510013547 74 306 2.0 11.0 0.00 0.00 0.00 25 1016.2
20260510013047 74 298 4.0 11.0 0.00 0.00 0.00 24 1016.4
20260510012546 74 294 2.0 7.0 0.00 0.00 0.00 24 1016.3
20260510012046 74 301 4.0 7.0 0.00 0.00 0.00 23 1016.4
20260510011549 74 284 2.0 7.0 0.00 0.00 0.00 23 1016.4
20260510011049 75 293 3.0 8.0 0.00 0.00 0.00 23 1016.3
20260510010544 75 309 3.0 11.0 0.00 0.00 0.00 23 1016.3
20260510010057 75 300 2.0 11.0 0.00 0.00 0.00 23 1016.3
20260510005545 75 307 3.0 8.0 0.00 0.00 0.00 22 1016.4
20260510005048 75 300 3.0 6.0 0.00 0.00 0.00 22 1016.4
20260510004546 75 297 1.0 6.0 0.00 0.00 0.00 20 1016.3
20260510004044 75 285 2.0 7.0 0.00 0.00 0.00 20 1016.4
20260510003545 75 274 2.0 8.0 0.00 0.00 0.00 19 1016.5
20260510003054 75 231 1.0 8.0 0.00 0.00 0.00 18 1016.5
20260510002544 75 297 1.0 6.0 0.00 0.00 0.00 19 1016.6
20260510002043 75 297 1.0 9.0 0.00 0.00 0.00 18 1016.5
20260510001546 75 304 2.0 9.0 0.00 0.00 0.00 18 1016.5
20260510001043 76 300 3.0 9.0 0.00 0.00 0.00 18 1016.5
20260510000544 76 349 2.0 8.0 0.00 0.00 0.00 17 1016.5
20260510000050 76 297 2.0 11.0 0.00 0.00 0.00 17 1016.6
20260509235545 76 315 4.0 11.0 0.00 0.00 0.00 16 1016.6
20260509235041 76 288 3.0 11.0 0.00 0.00 0.00 16 1016.7
20260509234551 76 307 3.0 11.0 0.00 0.00 0.00 17 1016.8
20260509234040 76 312 3.0 13.0 0.00 0.00 0.00 17 1016.8
20260509233542 76 290 6.0 13.0 0.00 0.00 0.00 14 1016.9
20260509233040 76 294 1.0 9.0 0.00 0.00 0.00 18 1016.8
20260509232539 76 295 3.0 11.0 0.00 0.00 0.00 17 1016.9
20260509232039 76 312 5.0 11.0 0.00 0.00 0.00 15 1016.9
20260509231539 76 312 4.0 11.0 0.00 0.00 0.00 17 1016.9
20260509231038 76 298 4.0 11.0 0.00 0.00 0.00 16 1016.9
20260509230537 76 287 3.0 9.0 0.00 0.00 0.00 16 1016.9
20260509230036 76 304 2.0 8.0 0.00 0.00 0.00 17 1017.0
20260509225539 75 285 2.0 6.0 0.00 0.00 0.00 18 1017.0
20260509225036 76 270 2.0 11.0 0.00 0.00 0.00 18 1017.1
20260509224536 75 313 4.0 11.0 0.00 0.00 0.00 18 1017.1
20260509224034 76 307 6.0 11.0 0.00 0.00 0.00 18 1017.2
20260509223535 76 295 2.0 9.0 0.00 0.00 0.00 19 1017.3
20260509223034 76 291 3.0 11.0 0.00 0.00 0.00 18 1017.4
20260509222533 76 300 3.0 11.0 0.00 0.00 0.00 19 1017.4
20260509222035 76 291 4.0 9.0 0.00 0.00 0.00 19 1017.5
20260509221533 76 262 2.0 9.0 0.00 0.00 0.00 21 1017.5
20260509221032 75 305 2.0 9.0 0.00 0.00 0.00 19 1017.5
20260509220530 75 288 5.0 10.0 0.00 0.00 0.00 21 1017.6
20260509220031 75 300 2.0 14.0 0.00 0.00 0.00 21 1017.6
20260509215529 75 267 5.0 11.0 0.00 0.00 0.00 22 1017.7
20260509215032 75 296 3.0 10.0 0.00 0.00 0.00 22 1017.8
20260509214536 75 246 1.0 9.0 0.00 0.00 0.00 22 1017.8
20260509214029 74 297 2.0 9.0 0.00 0.00 0.00 22 1017.9
20260509213530 74 267 3.0 9.0 0.00 0.00 0.00 21 1018.0
20260509213025 74 293 3.0 9.0 0.00 0.00 0.00 23 1018.1
20260509212524 74 257 3.0 9.0 0.00 0.00 0.00 23 1018.2
20260509212023 74 296 4.0 8.0 0.00 0.00 0.00 26 1018.4
20260509211526 73 304 2.0 8.0 0.00 0.00 0.00 26 1018.4
20260509211023 74 257 3.0 9.0 0.00 0.00 0.00 26 1018.4
20260509210521 73 291 3.0 9.0 0.00 0.00 0.00 26 1018.5
20260509210021 73 280 1.0 10.0 0.00 0.00 0.00 27 1018.5
20260509205519 73 289 5.0 10.0 0.00 0.00 0.00 27 1018.6
20260509205019 73 307 3.0 14.0 0.00 0.00 0.00 27 1018.5
20260509204527 72 280 4.0 14.0 0.00 0.00 0.00 28 1018.7
20260509204018 72 304 5.0 11.0 0.00 0.00 0.00 28 1018.7
20260509203518 72 290 2.0 10.0 0.00 0.00 0.00 30 1018.7
20260509203017 72 305 3.0 10.0 0.00 0.00 0.00 29 1018.7
20260509202516 71 283 2.0 12.0 0.00 0.00 0.00 30 1018.7
20260509202017 71 305 5.0 12.0 0.00 0.00 0.00 29 1018.8
20260509201516 72 302 4.0 10.0 0.00 0.00 0.00 29 1018.8
20260509201015 72 320 1.0 11.0 0.00 0.00 0.00 31 1018.8
20260509200517 71 120 1.0 11.0 0.00 0.00 0.00 30 1018.8
20260509200013 71 305 2.0 6.0 0.00 0.00 0.00 30 1018.9
20260509195514 71 283 1.0 9.0 0.00 0.00 0.00 31 1019.1
20260509195015 70 297 4.0 9.0 0.00 0.00 0.00 30 1019.1
20260509194510 70 288 2.0 10.0 0.00 0.00 0.00 32 1019.2
20260509194010 70 271 3.0 10.0 0.00 0.00 0.00 31 1019.3
20260509193509 70 304 1.0 7.0 0.00 0.00 0.00 32 1019.3
20260509193008 70 293 2.0 9.0 0.00 0.00 0.00 33 1019.5
20260509192507 69 125 5.0 9.0 0.00 0.00 0.00 32 1019.5
20260509192007 69 246 3.0 9.0 0.00 0.00 0.00 33 1019.6
20260509191506 69 294 4.0 8.0 0.00 0.00 0.00 32 1019.6
20260509191010 69 291 1.0 6.0 0.00 0.00 0.00 32 1019.7
20260509190504 68 283 2.0 7.0 0.00 0.00 0.00 31 1019.6
20260509190004 68 291 3.0 7.0 0.00 0.00 0.00 32 1019.8
20260509185502 68 269 2.0 9.0 0.00 0.00 0.00 33 1019.7
20260509185001 67 309 3.0 9.0 0.00 0.00 0.00 33 1019.8
20260509184500 67 291 3.0 8.0 0.00 0.00 0.00 33 1019.8
20260509184001 67 283 2.0 6.0 0.00 0.00 0.00 33 1019.8
20260509183600 67 309 2.0 6.0 0.00 0.00 0.00 34 1019.8
20260509183059 66 312 1.0 8.0 0.00 0.00 0.00 35 1019.9
20260509182559 66 291 3.0 8.0 0.00 0.00 0.00 36 1020.0
20260509182057 66 172 2.0 10.0 0.00 0.00 0.00 36 1020.1
20260509181603 66 278 3.0 10.0 0.00 0.00 0.00 36 1020.2
20260509181056 65 321 4.0 9.0 0.00 0.00 0.00 36 1020.2
20260509180554 65 293 3.0 9.0 0.00 0.00 0.00 37 1020.2
20260509180055 64 302 5.0 9.0 0.00 0.00 0.00 37 1020.2
20260509175551 64 308 3.0 8.0 0.00 0.00 0.00 39 1020.2
20260509175051 64 301 4.0 9.0 0.00 0.00 0.00 39 1020.3
20260509174557 63 285 1.0 9.0 0.00 0.00 0.00 41 1020.3
20260509174048 63 296 1.0 6.0 0.00 0.00 0.00 43 1020.3
20260509173546 63 295 2.0 11.0 0.00 0.00 0.00 44 1020.5
20260509173050 62 301 4.0 11.0 0.00 0.00 0.00 44 1020.5
20260509172544 62 291 2.0 8.0 0.00 0.00 0.00 45 1020.4
20260509172042 62 312 2.0 8.0 0.00 0.00 0.00 45 1020.5
20260509171550 61 298 3.0 6.0 0.00 0.00 0.00 46 1020.5
20260509171042 61 302 3.0 7.0 0.00 0.00 0.00 46 1020.5
20260509170540 61 297 3.0 7.0 0.00 0.00 0.00 45 1020.5
20260509170043 60 294 3.0 7.0 0.00 0.00 0.00 46 1020.5
20260509165539 60 294 2.0 5.0 0.00 0.00 0.00 48 1020.5
20260509165037 60 296 2.0 6.0 0.00 0.00 0.00 48 1020.5
20260509164537 60 303 2.0 5.0 0.00 0.00 0.00 48 1020.5
20260509164035 59 300 2.0 5.0 0.00 0.00 0.00 47 1020.6
20260509163534 59 301 1.0 4.0 0.00 0.00 0.00 48 1020.6
20260509163033 58 310 0.0 5.0 0.00 0.00 0.00 48 1020.6
20260509162532 58 288 1.0 6.0 0.00 0.00 0.00 48 1020.7
20260509162036 58 297 2.0 6.0 0.00 0.00 0.00 49 1020.7
20260509161531 57 290 1.0 5.0 0.00 0.00 0.00 50 1020.5
20260509161031 57 294 1.0 5.0 0.00 0.00 0.00 50 1020.5
20260509160527 57 293 2.0 4.0 0.00 0.00 0.00 50 1020.5
20260509160026 56 275 0.0 3.0 0.00 0.00 0.00 52 1020.5
20260509155523 56 283 0.0 3.0 0.00 0.00 0.00 52 1020.5
20260509155022 55 293 0.0 3.0 0.00 0.00 0.00 53 1020.5
20260509154524 55 205 0.0 3.0 0.00 0.00 0.00 54 1020.5
20260509154019 55 288 0.0 3.0 0.00 0.00 0.00 54 1020.5
20260509153521 54 222 0.0 2.0 0.00 0.00 0.00 54 1020.5
20260509153025 54 293 0.0 2.0 0.00 0.00 0.00 55 1020.5
20260509152517 54 203 0.0 1.0 0.00 0.00 0.00 56 1020.5
20260509152016 54 134 0.0 1.0 0.00 0.00 0.00 59 1020.5
20260509151516 53 134 0.0 1.0 0.00 0.00 0.00 60 1020.5
20260509151015 53 134 0.0 0.0 0.00 0.00 0.00 61 1020.5
20260509150514 52 134 0.0 0.0 0.00 0.00 0.00 62 1020.5
20260509150018 52 134 0.0 0.0 0.00 0.00 0.00 62 1020.5
20260509145514 51 134 0.0 1.0 0.00 0.00 0.00 62 1020.5
20260509145014 51 115 0.0 0.0 0.00 0.00 0.00 64 1020.4
20260509144515 51 108 0.0 1.0 0.00 0.00 0.00 65 1020.5
20260509144013 50 58 0.0 1.0 0.00 0.00 0.00 66 1020.5
20260509143513 50 127 0.0 1.0 0.00 0.00 0.00 69 1020.5
20260509143019 49 127 0.0 1.0 0.00 0.00 0.00 69 1020.5
20260509142514 49 112 0.0 1.0 0.00 0.00 0.00 70 1020.5
20260509142012 48 132 0.0 1.0 0.00 0.00 0.00 71 1020.4
20260509141513 48 126 0.0 1.0 0.00 0.00 0.00 72 1020.4
20260509141012 47 126 0.0 1.0 0.00 0.00 0.00 74 1020.5
20260509140511 47 125 0.0 1.0 0.00 0.00 0.00 75 1020.4
20260509140011 46 125 0.0 1.0 0.00 0.00 0.00 75 1020.4
20260509135511 45 125 0.0 0.0 0.00 0.00 0.00 78 1020.4
20260509135015 45 125 0.0 0.0 0.00 0.00 0.00 79 1020.4
20260509134511 44 126 0.0 0.0 0.00 0.00 0.00 81 1020.4
20260509134010 43 125 0.0 0.0 0.00 0.00 0.00 81 1020.4
20260509133510 43 125 0.0 0.0 0.00 0.00 0.00 82 1020.4
20260509133010 43 125 0.0 0.0 0.00 0.00 0.00 83 1020.4
20260509132509 42 125 0.0 0.0 0.00 0.00 0.00 83 1020.2
20260509132008 42 125 0.0 0.0 0.00 0.00 0.00 85 1020.2
20260509131510 41 125 0.0 0.0 0.00 0.00 0.00 85 1020.1
20260509131007 41 126 0.0 0.0 0.00 0.00 0.00 85 1020.0
20260509130505 41 125 0.0 0.0 0.00 0.00 0.00 86 1019.9
20260509130007 41 125 0.0 0.0 0.00 0.00 0.00 85 1019.9
20260509125507 41 125 0.0 0.0 0.00 0.00 0.00 85 1019.8
20260509125002 41 125 0.0 0.0 0.00 0.00 0.00 84 1019.7
20260509124502 41 125 0.0 0.0 0.00 0.00 0.00 84 1019.7
20260509124001 41 125 0.0 0.0 0.00 0.00 0.00 84 1019.7
20260509123501 41 125 0.0 0.0 0.00 0.00 0.00 84 1019.6
20260509123100 42 125 0.0 0.0 0.00 0.00 0.00 84 1019.6
20260509122559 42 125 0.0 0.0 0.00 0.00 0.00 83 1019.6
20260509122102 42 125 0.0 0.0 0.00 0.00 0.00 83 1019.6
20260509121612 42 125 0.0 0.0 0.00 0.00 0.00 83 1019.5
20260509121058 42 125 0.0 0.0 0.00 0.00 0.00 83 1019.5
20260509120557 42 125 0.0 0.0 0.00 0.00 0.00 83 1019.5
20260509120055 43 125 0.0 0.0 0.00 0.00 0.00 82 1019.5
20260509115555 43 126 0.0 0.0 0.00 0.00 0.00 82 1019.5
20260509115057 43 125 0.0 0.0 0.00 0.00 0.00 81 1019.5
20260509114554 43 126 0.0 0.0 0.00 0.00 0.00 82 1019.3
20260509114054 43 125 0.0 0.0 0.00 0.00 0.00 81 1019.3
20260509113554 43 126 0.0 0.0 0.00 0.00 0.00 81 1019.3
20260509113058 43 125 0.0 0.0 0.00 0.00 0.00 82 1019.3
20260509112556 43 126 0.0 0.0 0.00 0.00 0.00 82 1019.3
20260509112051 43 125 0.0 0.0 0.00 0.00 0.00 82 1019.2
20260509111557 43 126 0.0 0.0 0.00 0.00 0.00 82 1019.3
20260509111049 43 125 0.0 0.0 0.00 0.00 0.00 82 1019.1
20260509110549 43 125 0.0 0.0 0.00 0.00 0.00 81 1019.1
20260509110046 43 124 0.0 0.0 0.00 0.00 0.00 80 1019.1
20260509105549 44 124 0.0 0.0 0.00 0.00 0.00 80 1019.1
20260509105046 43 124 0.0 0.0 0.00 0.00 0.00 81 1019.0
20260509104545 44 124 0.0 0.0 0.00 0.00 0.00 80 1019.1
20260509104043 44 124 0.0 0.0 0.00 0.00 0.00 79 1019.0
20260509103542 44 124 0.0 0.0 0.00 0.00 0.00 78 1018.9
20260509103041 45 124 0.0 0.0 0.00 0.00 0.00 78 1018.9
20260509102540 45 124 0.0 0.0 0.00 0.00 0.00 77 1018.8
20260509102039 45 124 0.0 0.0 0.00 0.00 0.00 77 1018.9
20260509101540 45 124 0.0 0.0 0.00 0.00 0.00 77 1018.8
20260509101037 46 124 0.0 0.0 0.00 0.00 0.00 75 1018.8
20260509100536 46 124 0.0 0.0 0.00 0.00 0.00 74 1018.8
20260509100036 46 124 0.0 0.0 0.00 0.00 0.00 75 1018.7
20260509095535 46 124 0.0 0.0 0.00 0.00 0.00 76 1018.7
20260509095033 46 124 0.0 0.0 0.00 0.00 0.00 76 1018.7
20260509094533 46 124 0.0 0.0 0.00 0.00 0.00 76 1018.6
20260509094031 46 124 0.0 0.0 0.00 0.00 0.00 75 1018.5
20260509093530 46 124 0.0 0.0 0.00 0.00 0.00 74 1018.4
20260509093030 47 124 0.0 0.0 0.00 0.00 0.00 73 1018.3
20260509092529 47 120 0.0 0.0 0.00 0.00 0.00 73 1018.3
20260509092029 47 120 0.0 0.0 0.00 0.00 0.00 73 1018.3
20260509091530 47 120 0.0 0.0 0.00 0.00 0.00 73 1018.3